[[{"header":{"parameterUnit":"m.s-1","parameterCategory":1,"la1":30.2991,"la2":30.254,"lo1":-89.0895,"lo2":-89.0444,"dy":0.0017,"dx":0.0017,"nx":28,"ny":28,"refTime":"2024-04-15T21:00:00:Z","depth":0,"parameterNumber":2,"parameterNumberName":"U-component_of_WINDS"},"data":[0,0,0,0,0,0,0,0,0,0,0,0,0,0,0,0,0,0,0,0,0,0,0,0,0,0,0,0,0,0,0,0,0,0,0,0,0,0,0,0,0,0,0,0,0,0,0,0,0,0,0,0,0,0,0,0,0,0,-5.3041,-5.304,0,-5.3033,-5.3033,-5.3032,-5.2944,-5.2942,-5.294,-5.2938,-5.293,-5.2932,-5.2934,0,0,0,0,0,0,0,0,0,0,0,0,0,-5.298,-5.2982,-5.3041,-5.304,-5.304,-5.3033,-5.3033,-5.3032,-5.2944,-5.2942,-5.2939,-5.2937,-5.2929,-5.2932,-5.2934,0,0,0,0,0,0,0,0,0,0,0,0,0,-5.2993,-5.2982,-5.3041,-5.2996,-5.2991,-5.3033,-5.3033,-5.3032,-5.2945,-5.2942,-5.2938,-5.2935,-5.2929,-5.2931,-5.2934,-5.3018,0,0,-5.2943,-5.2944,0,0,0,0,0,0,0,0,-5.2992,-5.2995,-5.3002,-5.2999,-5.2994,-5.2986,-5.3008,-5.3028,-5.2946,-5.2963,-5.2937,-5.2934,-5.2951,-5.2952,-5.2958,-5.3018,-5.3018,-5.2943,-5.2945,-5.2946,-5.2947,0,0,0,0,0,0,0,-5.2991,-5.2995,-5.3037,-5.3002,-5.2998,-5.2976,-5.2974,-5.3012,-5.2976,-5.2961,-5.2954,-5.2955,-5.2948,-5.2955,-5.2957,-5.3017,-5.2943,-5.2945,-5.2947,-5.2948,-5.3145,-5.3148,0,0,0,0,0,0,-5.2997,-5.2995,-5.3038,-5.3037,-5.2985,-5.298,-5.2978,-5.2992,-5.2975,-5.2969,-5.2958,-5.2951,-5.2952,-5.2954,-5.2957,-5.3052,-5.2946,-5.2948,-5.295,-5.3141,-5.3146,-5.315,0,0,0,0,0,0,-5.2996,-5.3001,-5.3038,-5.3014,-5.3017,-5.2984,-5.3001,-5.2994,-5.3,-5.2973,-5.2966,-5.2971,-5.295,-5.2953,-5.3003,-5.3051,-5.295,-5.2952,-5.3137,-5.3143,-5.3148,-5.3245,0,0,0,0,0,0,-5.2994,-5.3002,-5.3033,-5.3016,-5.3019,-5.3085,-5.3004,-5.2996,-5.3005,-5.2996,-5.2984,-5.2978,-5.2947,-5.3,-5.3006,-5.3053,-5.2954,-5.3133,-5.314,-5.3146,-5.3237,-5.3253,-5.3267,0,0,0,0,0,-5.2993,-5.3061,-5.3035,-5.304,-5.3057,-5.3088,-5.3089,-5.3052,-5.301,-5.304,-5.3023,-5.2979,-5.3045,-5.3005,-5.3012,-5.306,-5.313,-5.3138,-5.3145,-5.3231,-5.325,-5.3266,0,0,0,0,0,0,-5.3084,-5.3058,-5.3028,-5.3093,-5.3094,-5.3073,-5.311,-5.3074,-5.3086,-5.3077,-5.3031,-5.3029,-5.3086,-5.3079,-5.3035,-5.314,-5.308,-5.3089,-5.3142,-5.316,-5.3175,-5.3174,-5.2957,0,0,0,0,0,-5.3113,-5.3139,-5.3115,-5.3174,-5.3176,-5.3144,-5.3156,-5.3127,-5.3125,-5.3125,-5.3111,-5.3111,-5.3132,-5.3146,-5.3164,-5.3237,-5.3232,-5.3274,-5.3288,-5.33,-5.3308,-5.3345,-5.3363,-5.3176,-5.3176,-5.3176,0,0,-5.317,-5.3159,-5.3178,-5.3193,-5.3189,-5.3217,-5.3144,-5.3178,-5.3198,-5.313,-5.3176,-5.3166,-5.3164,-5.3226,-5.3252,-5.3221,-5.336,-5.3311,-5.332,-5.3322,-5.3355,-5.3373,-5.3389,-5.3181,-5.318,-5.3179,0,0,-5.3289,-5.3284,-5.3332,-5.3331,-5.3327,-5.3305,-5.3317,-5.3302,-5.3292,-5.3338,-5.3288,-5.3312,-5.3349,-5.3349,-5.3353,-5.3474,-5.3433,-5.3482,-5.3556,-5.3593,-5.3607,-5.362,-5.3661,-5.3676,-5.349,-5.3491,-5.3491,0,-5.3361,-5.3401,-5.3362,-5.3398,-5.3405,-5.3346,-5.3394,-5.3395,-5.3397,-5.3403,-5.3369,-5.3414,-5.3408,-5.3468,-5.3498,-5.3505,-5.3516,-5.3481,-5.3608,-5.3621,-5.3632,-5.367,-5.3686,-5.3496,-5.3496,-5.3495,-5.3494,0,-5.3489,-5.3518,-5.3558,-5.3561,-5.3573,-5.3616,-5.3582,-5.36,-5.3571,-5.3553,-5.3601,-5.3592,-5.3606,-5.3619,-5.3592,-5.3676,-5.3656,-5.3617,-5.3554,-5.3656,-5.3691,-5.3706,-5.3504,-5.3502,-5.3501,-5.3499,0,0,-5.3662,-5.3644,-5.3659,-5.3659,-5.3651,-5.3673,-5.3713,-5.3727,-5.3742,-5.3747,-5.3778,-5.3812,-5.3774,-5.378,-5.3752,-5.3785,-5.3878,-5.374,-5.3739,-5.3764,-5.3968,-5.3996,-5.4014,-5.3853,-5.3856,-5.3858,-5.3968,0,-5.3775,-5.3841,-5.3807,-5.3878,-5.3903,-5.3848,-5.3883,-5.3882,-5.3867,-5.3887,-5.3871,-5.3894,-5.3844,-5.3847,-5.3877,-5.3861,-5.3918,-5.3853,-5.388,-5.3882,-5.3879,-5.4033,-5.4062,-5.4166,-5.3981,-5.3984,-5.3985,0,-5.3914,-5.3923,-5.3996,-5.3983,-5.3992,-5.4024,-5.4034,-5.4054,-5.4052,-5.4039,-5.4046,-5.4011,-5.4049,-5.3991,-5.4042,-5.3998,-5.4008,-5.4002,-5.4005,-5.4004,-5.3937,-5.4032,-5.4199,-5.4213,-5.4007,-5.4005,-5.4004,0,-5.403,-5.4062,-5.4109,-5.4111,-5.4098,-5.4121,-5.4117,-5.4111,-5.4122,-5.4131,-5.4137,-5.4151,-5.4158,-5.417,-5.414,-5.41,-5.4195,-5.4134,-5.4184,-5.4185,-5.4204,-5.4202,-5.4371,-5.4216,-5.4216,-5.4216,-5.4215,0,-5.4157,-5.4203,-5.416,-5.4189,-5.4239,-5.4201,-5.4252,-5.4242,-5.4238,-5.4263,-5.4218,-5.4243,-5.4203,-5.4225,-5.4202,-5.4247,-5.4252,-5.4241,-5.4234,-5.4243,-5.4244,-5.4246,-5.4237,-5.422,-5.4219,-5.4218,-5.4217,0,-5.4293,-5.4267,-5.4314,-5.4298,-5.4295,-5.4333,-5.4318,-5.4344,-5.4327,-5.436,-5.4366,-5.4339,-5.4362,-5.4334,-5.4355,-5.4339,-5.44,-5.4384,-5.44,-5.4394,-5.4445,-5.4439,-5.4618,-5.4639,-5.4474,-5.4475,-5.4477,0,-5.4374,-5.4408,-5.4396,-5.441,-5.4408,-5.4431,-5.4441,-5.4406,-5.4418,-5.4419,-5.4445,-5.4464,-5.4477,-5.4516,-5.4498,-5.4514,-5.4496,-5.4558,-5.4497,-5.4506,-5.4493,-5.449,-5.4492,-5.4569,-5.4571,-5.4572,-5.4574,0,-5.452,-5.4506,-5.4522,-5.4534,-5.4548,-5.4556,-5.4561,-5.4575,-5.4538,-5.4555,-5.4577,-5.4587,-5.4608,-5.4627,-5.4638,-5.4634,-5.4597,-5.4593,-5.4605,-5.4613,-5.462,-5.4614,-5.443,-5.4588,-5.4587,-5.4586,-5.4585,-5.4584,-5.463,-5.4657,-5.4652,-5.4671,-5.4671,-5.4677,-5.47,-5.4686,-5.4704,-5.4717,-5.4696,-5.4724,-5.4722,-5.4733,-5.4733,-5.4754,-5.4727,-5.4745,-5.4749,-5.4753,-5.476,-5.462,-5.4756,-5.4756,-5.4755,-5.4755,-5.4755,0,-5.4771,-5.4765,-5.4784,-5.4791,-5.4807,-5.4773,-5.4776,-5.4791,-5.4816,-5.4817,-5.4831,-5.4857,-5.4875,-5.486,-5.4875,-5.4895,-5.4879,-5.49,-5.4897,-5.4896,-5.4784,-5.4771,-5.4913,-5.4913,-5.4913,-5.4913,-5.4913,-5.4913,-5.4846,-5.4889,-5.4874,-5.4917,-5.4911,-5.4938,-5.4943,-5.4947,-5.4948,-5.4978,-5.4993,-5.4983,-5.4977,-5.4992,-5.5007,-5.5002,-5.5009,-5.5036,-5.5025,-5.492,-5.4904,-5.4889,-5.4876,-5.5038,-5.5038,-5.5134,-5.5135,-5.5136]},{"header":{"parameterUnit":"m.s-1","parameterCategory":1,"la1":30.2991,"la2":30.254,"lo1":-89.0895,"lo2":-89.0444,"dy":0.0017,"dx":0.0017,"nx":28,"ny":28,"refTime":"2024-04-15T21:00:00:Z","depth":0,"parameterNumber":3,"parameterNumberName":"V-component_of_WINDS"},"data":[0,0,0,0,0,0,0,0,0,0,0,0,0,0,0,0,0,0,0,0,0,0,0,0,0,0,0,0,0,0,0,0,0,0,0,0,0,0,0,0,0,0,0,0,0,0,0,0,0,0,0,0,0,0,0,0,0,0,3.8534,3.8534,0,3.8509,3.8508,3.8508,3.8434,3.8432,3.843,3.8429,3.8404,3.8404,3.8405,0,0,0,0,0,0,0,0,0,0,0,0,0,3.8522,3.8522,3.8534,3.8534,3.8534,3.8509,3.8508,3.8508,3.8434,3.8432,3.843,3.8428,3.8403,3.8404,3.8405,0,0,0,0,0,0,0,0,0,0,0,0,0,3.8515,3.8523,3.8534,3.8494,3.849,3.8509,3.8508,3.8508,3.8434,3.8432,3.8429,3.8427,3.8403,3.8404,3.8405,3.8462,0,0,3.8409,3.841,0,0,0,0,0,0,0,0,3.8515,3.8515,3.85,3.8497,3.8492,3.8472,3.8494,3.8492,3.8435,3.8455,3.8429,3.8426,3.8428,3.8427,3.8428,3.8461,3.846,3.8409,3.841,3.8411,3.8411,0,0,0,0,0,0,0,3.8516,3.8516,3.8524,3.85,3.8495,3.8477,3.8474,3.8494,3.8456,3.8453,3.8448,3.8446,3.8426,3.8427,3.8427,3.8459,3.8409,3.841,3.8411,3.8412,3.8538,3.8541,0,0,0,0,0,0,3.8522,3.8517,3.8525,3.8523,3.8498,3.848,3.8476,3.8481,3.8455,3.8449,3.8448,3.8443,3.8426,3.8425,3.8426,3.849,3.8411,3.8412,3.8413,3.8536,3.8539,3.8542,0,0,0,0,0,0,3.8522,3.8523,3.8526,3.8519,3.8518,3.8482,3.8489,3.8482,3.8483,3.8451,3.8444,3.8456,3.8424,3.8424,3.8454,3.8489,3.8412,3.8414,3.8533,3.8537,3.854,3.8621,0,0,0,0,0,0,3.8522,3.8524,3.8544,3.852,3.8518,3.8554,3.8491,3.8483,3.8485,3.8477,3.8457,3.8451,3.8422,3.8452,3.8455,3.8489,3.8415,3.8529,3.8535,3.8539,3.8615,3.8627,3.8637,0,0,0,0,0,3.8522,3.8568,3.8546,3.8547,3.8543,3.8556,3.8555,3.8521,3.8488,3.8509,3.8489,3.8452,3.8485,3.8456,3.8458,3.8493,3.8527,3.8533,3.8539,3.861,3.8625,3.8637,0,0,0,0,0,0,3.8597,3.8564,3.8539,3.8578,3.8571,3.8544,3.8568,3.8537,3.8539,3.8532,3.8489,3.8485,3.8521,3.851,3.8479,3.8547,3.85,3.8507,3.8553,3.8567,3.8578,3.858,3.8416,0,0,0,0,0,3.8619,3.8632,3.8602,3.864,3.8637,3.8604,3.8608,3.8582,3.8573,3.8569,3.8551,3.8544,3.8553,3.8559,3.8565,3.8613,3.8608,3.8639,3.865,3.8659,3.8666,3.8691,3.8705,3.8561,3.8561,3.8561,0,0,3.8663,3.8646,3.8657,3.8655,3.8645,3.8661,3.8602,3.862,3.8631,3.8572,3.8599,3.8586,3.8575,3.8615,3.8631,3.8607,3.8704,3.8667,3.8675,3.8676,3.8699,3.8712,3.8724,3.8565,3.8564,3.8564,0,0,3.8751,3.8739,3.877,3.8763,3.875,3.8728,3.8735,3.8713,3.8702,3.8729,3.8685,3.8698,3.8714,3.8708,3.8707,3.8795,3.8762,3.8799,3.8857,3.8883,3.8894,3.8904,3.8936,3.8948,3.8805,3.8805,3.8805,0,3.8807,3.8828,3.879,3.8811,3.8812,3.876,3.8791,3.8786,3.8776,3.8778,3.8751,3.877,3.8759,3.8797,3.8818,3.8819,3.8827,3.88,3.8896,3.8905,3.8914,3.8944,3.8956,3.881,3.8809,3.8809,3.8808,0,3.8898,3.8913,3.894,3.8932,3.8936,3.8962,3.8929,3.8937,3.8912,3.8893,3.8921,3.8906,3.8909,3.8916,3.8891,3.8951,3.8936,3.8903,3.8854,3.8933,3.896,3.8971,3.8816,3.8815,3.8813,3.8812,0,0,3.9032,3.9004,3.9014,3.901,3.8993,3.9005,3.9029,3.9032,3.904,3.9036,3.9056,3.9071,3.9041,3.904,3.9014,3.9036,3.9108,3.9,3.8999,3.9021,3.9174,3.92,3.9213,3.9086,3.9088,3.909,3.9175,0,3.9116,3.9155,3.9123,3.9169,3.9183,3.9135,3.9156,3.9149,3.9132,3.9142,3.9124,3.9136,3.9094,3.9093,3.9113,3.9095,3.9138,3.9088,3.9105,3.9106,3.9109,3.9228,3.9254,3.9336,3.9186,3.9188,3.9189,0,3.9218,3.9219,3.9266,3.9247,3.9252,3.9272,3.9272,3.9282,3.9273,3.926,3.926,3.9228,3.9252,3.9205,3.9238,3.9205,3.9209,3.9202,3.9204,3.9204,3.9152,3.9231,3.9361,3.9373,3.9205,3.9204,3.9203,0,3.9312,3.9324,3.9355,3.9353,3.9331,3.9347,3.9339,3.9327,3.9331,3.9332,3.9334,3.9338,3.934,3.9344,3.9315,3.9283,3.9352,3.9302,3.9342,3.9343,3.9358,3.9358,3.9491,3.9362,3.9361,3.9361,3.9361,0,3.9408,3.944,3.9397,3.9415,3.9449,3.9412,3.9447,3.9434,3.9424,3.944,3.9399,3.9415,3.9375,3.9387,3.9364,3.9395,3.9397,3.9387,3.9381,3.9391,3.9392,3.9393,3.9387,3.9364,3.9364,3.9363,3.9362,0,3.9518,3.9491,3.9521,3.9498,3.9494,3.952,3.9501,3.9518,3.9499,3.952,3.9523,3.9493,3.9505,3.9477,3.9485,3.947,3.9514,3.9499,3.9517,3.9513,3.9554,3.9551,3.9693,3.971,3.957,3.9571,3.9572,0,3.9582,3.9605,3.9585,3.9593,3.9587,3.96,3.9604,3.9569,3.9575,3.9568,3.9586,3.9595,3.96,3.9622,3.9602,3.9608,3.9593,3.9642,3.9593,3.9603,3.9594,3.9593,3.9596,3.9652,3.9654,3.9655,3.9656,0,3.9698,3.9684,3.9691,3.9694,3.9701,3.9701,3.9699,3.9708,3.9671,3.968,3.9692,3.9696,3.9705,3.9715,3.9717,3.9709,3.9677,3.9672,3.9681,3.9692,3.9702,3.9698,3.9545,3.9669,3.9667,3.9666,3.9666,3.9665,3.9787,3.9805,3.9795,3.9805,3.98,3.98,3.9815,3.9798,3.9807,3.9812,3.979,3.9808,3.9799,3.9799,3.9794,3.9808,3.9785,3.9799,3.9803,3.9807,3.9814,3.97,3.9808,3.9808,3.9807,3.9807,3.9807,0,3.9901,3.9892,3.9902,3.9901,3.9909,3.9878,3.9875,3.9884,3.99,3.9894,3.9901,3.9915,3.9925,3.9906,3.9913,3.9927,3.9913,3.993,3.9929,3.9928,3.9833,3.9824,3.9942,3.9942,3.9942,3.9942,3.9942,3.9942,3.9962,3.9992,3.9977,4.0004,3.9995,4.0011,4.0012,4.0012,4.0008,4.0026,4.0034,4.0021,4.0011,4.0017,4.0025,4.0019,4.0024,4.0046,4.0036,3.9948,3.9934,3.9922,3.9913,4.0048,4.0048,4.0129,4.013,4.0131]}]]